This is the latest recevied weather packets stored in our database for station/object WB6ANP. If no packets are shown the sender has not sent any weather packets the latest 10 day(s).
| Time | Temp. | Humidity | Pressure | Rain* | Wind** | Luminosity | Snow |
|---|---|---|---|---|---|---|---|
| 1777669043 | 16.67° C | 60% | 1016 hPa | 0 mm | - | 224 W/m² | - |
| 1777668740 | 16.67° C | 65% | 1016 hPa | 0 mm | - | 215 W/m² | - |
| 1777668437 | 16.11° C | 65% | 1016.3 hPa | 0 mm | - | 211 W/m² | - |
| 1777668133 | 16.67° C | 63% | 1016.3 hPa | 0 mm | - | 217 W/m² | - |
| 1777667829 | 16.11° C | 66% | 1016.5 hPa | 0 mm | - | 228 W/m² | - |
| 1777667527 | 16.11° C | 64% | 1016.7 hPa | 0 mm | - | 222 W/m² | - |
| 1777667224 | 16.11° C | 66% | 1016.9 hPa | 0 mm | - | 223 W/m² | - |
| 1777666921 | 16.11° C | 68% | 1016.8 hPa | 0 mm | - | 193 W/m² | - |
| 1777666618 | 16.11° C | 69% | 1017.2 hPa | 0 mm | - | 238 W/m² | - |
| 1777666314 | 15.56° C | 68% | 1017.2 hPa | 0 mm | - | 214 W/m² | - |
| 1777666011 | 16.11° C | 68% | 1017.1 hPa | 0 mm | - | 211 W/m² | - |
| 1777665709 | 15.56° C | 68% | 1017.5 hPa | 0 mm | - | 173 W/m² | - |
| 1777665406 | 15.56° C | 67% | 1017.1 hPa | 0 mm | - | 148 W/m² | - |
| 1777665101 | 15.56° C | 64% | 1017.1 hPa | 0 mm | - | 137 W/m² | - |
| 1777664797 | 15.56° C | 63% | 1017 hPa | 0 mm | - | 117 W/m² | - |
| 1777664493 | 15.56° C | 63% | 1016.8 hPa | 0 mm | - | 103 W/m² | - |
| 1777664191 | 15.56° C | 63% | 1016.7 hPa | 0 mm | - | 98 W/m² | - |
| 1777663889 | 15.56° C | 62% | 1016.9 hPa | 0 mm | - | 99 W/m² | - |
| 1777663586 | 16.11° C | 61% | 1016.7 hPa | 0 mm | - | 106 W/m² | - |
| 1777663283 | 16.11° C | 62% | 1016.4 hPa | 0 mm | - | 153 W/m² | - |
| 1777662980 | 16.11° C | 63% | 1016.1 hPa | 0 mm | - | 158 W/m² | - |
| 1777662677 | 16.11° C | 61% | 1016.1 hPa | 0 mm | - | 188 W/m² | - |
| 1777662374 | 16.11° C | 62% | 1016.1 hPa | 0 mm | - | 198 W/m² | - |
| 1777662069 | 15.56° C | 58% | 1016.2 hPa | 0 mm | - | 179 W/m² | - |
| 1777661765 | 15.56° C | 58% | 1016 hPa | 0 mm | - | 181 W/m² | - |
* Rain latest hour (hover to see other rain measurements)
** Current wind speed in m/s (hover to see current wind gust speed)